Regional Weather Roundup
Issued by NWS State College, PA

Home | Current Version | Previous Version | Text Only | Print | Product List | Glossary Off
Versions: 1 2 3 4 5 6 7 8 9 10 11 12 13 14 15 16 17 18 19 20 21 22 23 24 25 26 27 28 29 30 31 32 33 34 35 36 37 38 39 40 41 42 43 44 45 46 47 48 49 50

000
ASUS41 KCTP 282210
RWRCTP

REGIONAL WEATHER ROUNDUP
NATIONAL WEATHER SERVICE STATE COLLEGE PA
600 PM EDT THU AUG 28 2014

Note: "fair" indicates few or no clouds below 12,000 feet with no
significant weather and/or obstructions to visibility.

* = STATION THAT DOES NOT REPORT PRECIPITATION /E.G. RAIN...SNOW...ETC/
    THUNDER OR FOG.

PAZ002>004-007>009-013>016-020>023-029>032-282300-
WESTERN PENNSYLVANIA

CITY           SKY/WX    TMP DP  RH WIND       PRES   REMARKS
ERIE           SUNNY     68  49  50 W5        30.11F
MEADVILLE      SUNNY     67  48  50 N7        30.12S
FRANKLIN*      SUNNY     66  48  52 N8        30.12S
NEW CASTLE     FAIR      70  51  50 NW9       30.12R
BEAVER COUNTY  SUNNY     72  50  46 N6        30.10F
BUTLER*        SUNNY     70  48  46 N5        30.11F
PITTSBURGH INT MOSUNNY   73  52  47 NW7       30.09S
PITTSBURGH     MOSUNNY   72  47  40 NW8       30.08S
INDIANA*       SUNNY     72  50  46 NW8       30.12F
LATROBE        MOSUNNY   72  54  53 NW7       30.09S
WASHINGTON CO* SUNNY     72  55  56 NW6       30.11S
$$

PAZ004>006-010>012-017>019-024>028-033>037-041-042-045-046-049>053-282300-
CENTRAL PENNSYLVANIA

CITY           SKY/WX    TMP DP  RH WIND       PRES   REMARKS
BRADFORD       MOSUNNY   64  47  53 NW10      30.11S
DUBOIS         SUNNY     68  50  52 W9        30.08S
CLEARFIELD     SUNNY     72  48  42 NW9       30.07S
JOHNSTOWN      SUNNY     67  46  47 NW13      30.10S
ALTOONA        SUNNY     72  50  45 NW10      30.07R
STATE COLLEGE  SUNNY     73  50  43 NW8       30.05S
WILLIAMSPORT   SUNNY     75  47  36 NW9       30.01R
SELINSGROVE    PTSUNNY   76  53  44 NW7       30.01R
FT INDIANTOWN  SUNNY     76  52  43 VRB5      30.01R
CAPITAL CITY   SUNNY     76  51  41 NW12      30.01R
HARRISBURG     MOSUNNY   77  50  38 NW12      30.00R
YORK           SUNNY     76  53  44 N7        30.00R
$$

PAZ038>040-043-044-047-048-054-055-060>062-067>071-282300-
EASTERN PENNSYLVANIA

CITY           SKY/WX    TMP DP  RH WIND       PRES   REMARKS
SCRANTON       MOSUNNY   73  49  42 NW14      30.02R
MOUNT POCONO   PTSUNNY   65  48  54 N10       30.03R
ALLENTOWN      SUNNY     75  49  39 N9        29.98R
QUAKERTOWN*    CLEAR     75  50  41 MISG      29.99R
READING        SUNNY     76  51  41 N13       29.98R
LANCASTER      SUNNY     75  50  41 N12       30.00R
COATESVILLE    CLEAR     73  54  49 N8        30.01R
POTTSTOWN      MOSUNNY   75  51  43 NW10      29.99R
BLUE BELL      SUNNY     77  52  41 NW7       29.96R
DOYLESTOWN     SUNNY     76  49  38 N13G18    29.97R
WILLOW GROVE   NOT AVBL
NORTH PHILA    SUNNY     79  48  33 NW14      29.97R
PHILADELPHIA   MOSUNNY   79  51  37 NW12      29.97R
$$


USA.gov is the U.S. government's official web portal to all federal, state and local government web resources and services.